Lapse_Rate
6.1 5.7 5.6 6.0 6.1 5.7 5.7 5.9 6.1 5.1 5.2 5.1 5.2 5.7 6.7 7.1 8.0 8.7 8.2 7.9 8.3 8.2 8.4 7.7 8.4 8.0 7.7 7.8 8.2 7.5 7.9 7.9 6.7
5.7 5.2 5.0 5.3 5.8 5.9 5.8 5.9 5.9 5.5 5.3 5.1 5.1 6.0 6.5 7.1 8.5 8.5 7.4 7.8 8.3 8.7 8.2 8.3 8.1 7.3 7.7 7.7 7.1 7.4 7.6 7.6 7.2
5.7 5.2 4.8 4.8 5.3 5.7 5.9 5.8 5.6 5.2 5.3 5.2 5.0 5.6 6.3 6.3 7.9 8.2 8.0 8.3 8.5 9.1 8.4 8.4 7.2 7.3 6.5 6.4 6.6 6.2 6.2 6.3 6.2
5.4 5.0 5.6 5.2 5.1 5.5 5.6 5.6 5.1 5.0 4.9 4.5 4.8 5.6 6.1 6.4 8.0 7.7 7.5 7.7 8.7 8.2 7.8 7.8 6.8 6.2 6.1 5.7 5.6 5.8 5.9 5.8 5.7
5.2 4.9 5.6 5.4 4.9 5.1 5.5 5.3 4.9 4.9 4.5 4.0 4.0 5.2 6.3 6.6 8.7 7.9 7.2 7.4 8.8 7.9 7.5 7.4 6.4 5.8 5.4 5.5 5.4 5.3 5.3 5.4 5.3
5.2 4.8 5.2 5.7 5.0 5.1 5.3 5.6 5.0 4.6 4.2 3.9 3.9 4.6 6.1 7.3 8.8 6.9 7.4 7.5 7.7 7.1 6.9 5.7 5.7 5.6 5.3 5.1 5.2 5.0 4.9 5.0 5.1
5.9 5.5 5.1 5.3 4.9 5.2 5.4 5.3 5.1 4.7 3.8 3.4 3.6 3.9 5.7 7.3 7.8 6.6 7.2 7.1 7.6 6.7 5.7 5.5 5.4 5.0 4.9 4.8 4.8 4.7 4.6 4.7 4.7
7.0 5.3 4.3 4.9 4.8 4.6 5.2 5.2 4.6 4.6 5.0 3.9 3.3 4.2 5.8 7.3 7.6 6.8 6.9 6.8 7.1 6.2 5.4 5.2 5.0 4.8 4.7 4.9 4.7 4.6 4.5 4.5 4.6
7.4 5.6 4.4 4.5 4.2 4.5 5.0 4.8 4.5 5.1 5.8 5.9 4.8 5.1 6.4 7.6 6.4 6.5 6.6 6.0 6.7 7.0 5.1 5.0 4.8 4.9 4.7 4.8 4.8 4.7 4.6 4.6 4.7
5.3 6.5 5.0 4.8 4.9 5.1 5.6 5.7 5.7 5.8 6.5 7.5 6.8 6.1 7.0 8.2 6.7 6.0 6.3 5.8 5.6 5.7 5.6 5.2 4.9 4.9 5.0 4.9 4.9 4.7 4.7 4.8 4.8
4.8 5.1 5.3 5.4 5.6 5.7 5.9 6.1 6.7 6.9 7.2 6.7 7.4 7.2 7.8 7.8 7.8 5.8 5.9 5.7 5.3 5.7 5.3 5.2 5.1 5.0 4.9 4.7 4.7 4.6 4.7 4.9 5.0
5.9 5.6 5.4 5.6 6.1 6.2 6.2 6.3 7.2 7.1 8.0 6.6 6.9 7.0 7.3 7.5 7.6 6.0 5.3 5.2 5.0 4.6 5.3 5.4 5.2 5.1 5.1 5.2 5.1 5.0 5.3 4.9 5.2
5.1 5.6 5.5 5.8 5.7 5.7 5.4 6.4 6.8 7.0 7.3 6.5 6.0 6.0 6.5 6.7 7.3 7.8 6.0 4.3 4.2 4.3 4.4 4.7 5.3 5.2 5.0 5.2 5.3 5.0 5.2 5.6 5.7
4.8 4.4 4.7 6.0 5.2 5.2 4.9 6.1 6.5 6.3 6.4 6.5 5.8 5.7 5.7 5.8 7.7 6.5 7.0 5.2 4.5 3.7 4.0 4.3 4.5 4.6 5.0 5.1 5.0 5.3 5.4 5.8 5.7
5.2 4.2 4.2 5.1 5.6 5.5 5.3 6.4 6.7 6.6 6.7 7.4 7.4 5.3 5.5 5.7 5.4 5.5 7.2 7.1 6.8 4.9 3.6 3.2 3.3 4.0 4.1 4.3 4.8 5.1 5.2 5.4 5.4
5.8 5.5 4.9 5.0 5.1 5.4 6.3 5.8 6.0 6.0 6.3 6.0 6.2 6.0 5.3 5.4 5.1 5.5 5.5 6.2 6.3 6.1 6.0 3.3 2.6 3.1 3.6 3.4 3.7 4.2 4.7 5.1 5.1
7.3 5.5 6.4 5.6 5.1 4.7 5.4 6.2 6.1 6.1 4.5 6.3 6.6 5.9 5.9 5.1 5.5 5.4 6.2 5.9 6.5 5.5 5.1 5.4 3.9 3.5 3.2 2.9 2.9 3.2 4.0 4.8 5.1
7.0 7.4 6.3 6.3 5.8 5.2 4.9 5.4 5.7 6.0 5.6 6.1 5.2 6.1 6.4 4.8 5.0 5.6 5.6 6.3 5.7 5.7 5.0 4.4 5.0 5.0 4.3 3.6 2.8 3.1 3.2 4.1 4.8
7.3 6.9 7.2 6.5 6.2 6.1 5.5 5.5 6.0 6.1 5.8 4.9 7.0 4.4 5.5 5.9 5.1 5.1 5.8 6.7 6.7 6.0 5.4 6.4 5.1 5.4 4.9 5.1 3.6 3.4 3.6 3.3 4.2
7.8 7.0 6.6 7.0 6.6 5.6 6.0 5.2 4.8 5.8 6.1 5.5 5.7 5.6 4.4 4.7 5.1 4.0 4.4 5.9 5.9 5.8 5.7 5.3 5.0 5.3 4.7 4.9 4.4 4.0 3.8 3.0 3.8
Wind_Speed
7 5 5 7 9 13 14 14 15 13 11 11 9 7 3 5 7 12 15 14 12 12 14 13 14 14 13 13 16 14 14 16 15
12 9 8 10 12 12 14 13 13 11 10 9 8 5 3 6 10 13 16 14 9 9 11 13 13 13 12 12 13 12 13 13 14
11 10 10 14 14 13 14 14 13 13 10 7 6 5 5 11 12 14 14 7 10 9 8 11 10 11 11 10 10 11 11 11 11
12 11 11 13 15 15 16 15 15 15 12 10 5 7 6 7 10 14 15 9 9 8 8 7 8 8 8 8 8 8 9 9 10
12 12 13 14 16 16 16 17 16 15 14 12 10 7 9 7 5 11 17 12 7 8 7 6 6 6 6 6 7 6 6 7 7
13 13 16 15 16 16 17 15 15 16 14 12 11 10 11 9 8 16 17 13 9 8 7 6 5 5 4 3 4 4 4 5 5
15 15 18 18 18 18 17 17 16 14 13 11 10 11 15 11 11 16 17 13 10 9 8 6 5 4 3 2 1 2 2 2 3
15 14 15 14 19 14 15 14 12 13 12 13 14 15 17 11 13 18 18 14 12 10 9 8 7 6 4 3 2 1 1 2 2
8 9 12 13 13 12 13 12 14 15 15 16 15 17 15 9 14 19 18 14 13 12 10 9 8 7 6 5 4 4 3 4 5
8 8 12 12 14 14 12 12 13 13 14 14 16 15 14 10 13 17 19 15 13 14 12 11 10 9 8 6 6 6 6 6 8
6 5 7 13 16 17 14 11 8 8 12 6 12 11 11 10 9 16 19 17 13 14 15 14 12 11 10 9 8 8 8 10 10
8 7 5 11 17 16 14 13 13 5 8 7 7 10 12 11 12 16 17 18 17 14 16 15 15 14 13 12 11 11 12 12 11
7 6 6 10 12 12 7 8 9 7 5 5 5 5 9 12 13 15 15 16 16 18 18 17 16 17 15 15 13 14 15 15 15
10 6 5 12 6 6 7 8 10 8 5 5 5 5 5 5 11 11 15 19 17 17 23 23 21 17 17 17 17 17 16 13 11
12 6 8 7 7 8 6 10 9 8 9 6 6 4 5 5 5 5 13 17 18 19 18 21 21 25 20 18 19 19 17 13 10
9 8 6 9 8 10 12 9 9 8 9 3 2 3 6 6 5 6 5 7 15 19 17 15 16 18 28 25 23 22 20 18 15
12 7 11 11 8 10 12 11 8 8 6 8 5 3 3 4 6 5 6 7 10 11 16 16 18 18 18 22 27 25 23 20 17
13 14 8 12 11 10 10 11 12 9 7 9 5 3 5 3 3 7 6 8 6 9 14 18 17 20 17 20 23 29 26 23 20
14 13 14 10 11 12 11 10 12 13 9 4 9 3 3 4 2 4 8 8 9 9 8 11 15 19 19 21 22 25 26 22 21
15 13 12 13 10 9 13 12 13 10 9 8 7 9 3 3 2 3 7 8 9 8 9 8 13 18 18 20 22 26 26 21 19
Wind_Direction
164 191 140 142 137 141 132 135 115 130 136 136 148 171 198 264 169 83 94 94 96 99 101 92 91 85 85 78 76 75 73 67 71
171 191 154 146 150 147 136 131 131 140 145 147 173 206 246 286 116 107 108 110 107 95 93 102 91 97 94 79 82 75 73 71 67
177 193 173 156 154 150 145 137 148 151 154 163 197 226 265 327 96 99 109 118 115 108 98 97 102 98 97 91 83 77 71 72 66
189 189 184 168 160 158 154 152 159 160 162 162 214 249 285 308 130 124 116 122 122 112 118 118 119 106 102 98 88 88 74 66 56
200 193 191 180 169 166 165 162 165 166 161 170 187 232 273 289 143 146 135 141 140 136 133 126 105 113 113 100 92 80 73 69 59
207 196 193 187 177 171 169 169 172 169 167 182 196 208 233 246 162 135 144 138 163 153 148 146 139 133 131 108 94 88 73 63 50
198 197 197 187 182 178 177 174 176 169 173 183 203 222 236 243 143 147 147 152 169 166 159 165 167 163 168 153 121 95 77 62 37
196 184 180 181 187 183 180 175 173 196 187 179 193 224 244 232 138 154 153 163 179 182 177 180 183 192 196 211 216 225 277 321 318
203 166 172 178 184 185 183 183 191 206 226 180 188 214 238 206 143 161 163 172 190 191 189 194 199 211 214 220 238 257 271 289 296
222 187 177 185 185 193 193 191 196 210 215 197 192 205 226 190 148 164 174 179 200 194 201 204 206 213 230 233 243 256 272 279 281
201 216 189 192 192 197 195 196 204 206 209 216 195 201 203 190 177 165 184 184 197 209 206 207 213 217 222 230 239 250 261 266 275
200 216 212 191 198 201 195 196 210 217 207 200 201 193 189 204 196 160 180 192 199 205 212 218 215 218 225 232 240 246 254 259 265
211 207 217 206 196 204 194 197 206 214 206 198 202 195 187 191 199 191 175 186 197 209 214 219 228 223 226 233 241 247 251 252 255
202 221 224 197 199 215 205 207 199 208 213 196 199 198 190 189 193 190 197 183 192 199 214 219 227 231 231 235 239 246 250 256 259
218 202 211 218 207 209 220 212 205 200 208 199 201 200 195 191 194 197 196 202 196 188 202 214 221 227 230 234 241 247 253 260 263
213 212 204 203 210 214 210 215 211 205 202 164 203 214 207 195 196 204 205 198 199 204 210 200 207 219 230 230 233 241 246 251 255
226 210 208 209 206 205 207 204 210 215 216 191 182 202 254 240 202 193 202 208 203 195 204 210 200 207 217 223 228 232 239 244 247
221 222 225 208 211 213 206 202 196 209 212 211 155 171 213 185 219 205 202 205 207 205 201 204 214 219 216 217 224 230 231 237 243
231 216 216 219 209 214 211 212 213 205 207 214 227 174 146 183 218 236 215 210 218 209 201 214 213 215 219 222 217 221 226 229 237
229 227 213 219 225 216 209 200 203 202 204 202 201 236 207 271 134 224 208 217 218 216 206 201 205 214 217 225 221 214 220 221 229